Location: Buffign�court
(47.8126°N, 6.0176°E)
Time: 20:10:12
(UTC+00:00)

Cosmos 1486 Rocket - Pass Details

Date: 16 June 2021
Orbit: 759 x 783 km, 74.1° (Epoch: 31 July)

Event Time Altitude Azimuth Distance (km) Brightness Sun altitude
Rises 22:10:23 0° 338° (NNW) 3,241 9.1 -16.2°
Reaches altitude 10° 22:12:47 10° 340° (NNW) 2,308 7.8 -16.3°
Maximum altitude 22:18:01 76° 66° (ENE) 789 4.0 -16.6°
Enters shadow 22:20:49 28° 148° (SSE) 1,399 4.8 -16.8°
